Wind_Speed
35 36 37 38 38 38 39 40 41 41 42 42 42 43 43 44 45 46 46 46 46 46 46 46 47 47 46 47 47 47 47 47 46 46 47 47 47 47 47 46 46 46 45
35 36 36 37 38 39 39 40 41 42 43 43 43 43 44 45 46 47 47 48 48 48 48 48 48 48 47 48 48 48 49 48 48 47 48 48 48 49 49 49 49 49 48
35 36 36 37 38 39 39 40 41 42 43 44 44 45 45 45 46 47 47 48 48 49 49 49 49 49 49 49 49 49 50 50 49 49 49 49 49 50 50 50 50 51 51
35 35 36 37 38 39 39 40 42 42 43 44 45 46 46 46 47 47 48 48 49 49 49 49 50 50 49 49 49 49 49 50 50 50 50 50 49 51 51 52 52 52 52
35 36 37 38 38 39 41 41 41 42 43 44 45 46 46 46 46 47 48 49 49 50 49 49 49 49 50 50 49 50 51 51 51 52 52 52 52 52 53 53 53 53 53
36 37 38 38 38 39 40 41 41 42 44 44 45 45 46 46 47 48 48 49 49 50 50 50 50 50 50 50 51 51 52 52 52 53 54 54 54 54 55 55 56 55 55
36 38 38 37 37 38 39 41 42 43 44 44 45 45 45 46 46 46 47 48 49 50 50 51 51 51 51 51 52 52 53 53 53 53 54 54 55 56 56 56 57 57 57
36 37 37 37 38 38 39 41 42 43 43 44 45 45 45 46 46 46 47 47 48 49 50 50 51 51 52 52 52 53 53 54 54 54 54 54 54 55 56 57 58 59 59
36 37 38 38 39 39 39 40 41 42 43 44 45 46 47 47 47 47 47 47 47 48 48 49 50 51 51 52 52 53 54 55 55 55 55 55 55 56 56 57 58 59 59
37 38 38 39 40 40 40 41 42 42 43 43 44 46 47 48 48 48 48 47 47 47 48 49 50 50 51 51 52 53 53 55 55 56 56 57 57 58 58 59 59 59 60
36 37 38 39 40 41 41 42 42 43 44 44 45 45 47 47 48 48 49 49 49 49 49 50 50 51 52 52 53 54 54 55 55 55 56 57 58 59 59 61 61 62 62
35 36 37 39 40 41 42 43 43 44 45 46 46 46 47 48 49 50 50 50 50 51 51 52 52 52 52 53 53 54 55 55 56 57 58 58 60 60 60 60 62 62 63
34 35 37 38 39 41 42 43 44 45 46 47 47 48 48 49 50 51 51 51 51 52 53 53 54 55 55 55 55 55 56 56 57 58 59 60 61 61 62 62 63 63 63
34 35 36 38 39 40 42 43 44 46 47 47 48 48 49 49 49 50 51 52 52 53 54 54 55 55 56 56 57 57 57 57 57 58 59 60 61 61 62 62 63 64 64
35 36 38 39 40 41 43 44 45 45 47 47 48 48 49 49 50 50 51 52 53 53 54 55 56 57 57 57 57 58 58 59 59 59 60 60 60 60 61 62 63 63 63
37 37 39 40 41 41 42 43 44 45 46 47 48 48 49 50 50 51 51 52 53 54 55 56 57 57 57 58 58 59 59 60 60 60 61 61 62 61 62 62 62 62 63
37 38 39 40 41 41 42 43 44 45 45 46 47 48 49 50 50 51 51 52 54 55 55 56 57 57 57 58 58 59 59 60 60 61 61 61 61 62 63 63 63 62 63
38 39 40 41 42 42 42 43 43 44 45 46 47 48 49 50 50 51 52 53 53 55 55 56 56 57 57 57 57 58 59 59 60 60 61 61 62 63 63 63 63 63 63
39 40 41 42 42 42 43 43 44 44 45 46 46 47 48 49 50 50 52 53 54 55 56 56 56 56 57 57 57 58 59 59 59 60 60 61 62 62 64 64 63 63 63
40 40 41 42 42 43 43 44 44 45 45 46 46 47 47 48 49 51 52 53 53 54 55 55 56 56 56 56 57 58 58 59 59 59 60 60 61 61 62 63 63 62 62
40 41 41 42 42 43 43 44 44 45 46 46 46 47 47 48 49 50 51 52 52 53 53 54 54 54 54 55 56 56 57 58 58 58 59 59 60 60 60 61 61 61 61
41 41 42 42 42 43 43 44 44 45 46 46 46 47 48 48 49 50 51 52 52 52 53 53 53 53 54 55 55 56 56 56 56 57 58 58 59 59 60 60 60 60 61
41 40 41 41 41 42 43 44 44 45 45 46 46 47 48 48 49 50 50 51 52 52 52 52 52 52 52 53 54 54 54 54 55 55 56 57 58 59 59 60 60 60 61
41 41 40 41 41 42 43 43 44 45 46 46 46 47 47 48 49 50 50 50 50 50 50 50 51 51 51 51 52 52 52 51 52 53 54 55 56 57 58 58 59 60 60
41 41 41 41 41 42 43 44 45 45 46 46 47 48 48 49 49 49 49 49 49 49 49 49 49 50 50 51 51 50 50 50 51 52 53 53 54 55 56 57 57 58 58
42 42 42 42 42 43 44 44 45 45 46 46 47 48 48 48 49 49 48 49 49 49 49 49 49 49 49 50 50 50 50 50 50 51 51 52 53 53 54 54 55 55 56
Wind_Direction
257 256 255 254 253 252 252 252 252 252 252 253 254 255 255 256 255 256 257 257 257 257 257 257 257 256 256 256 254 254 254 254 254 254 254 255 255 255 256 257 258 257 256
259 258 256 254 253 252 252 253 253 253 254 255 255 256 257 257 257 257 258 258 258 258 257 257 257 257 257 256 256 255 254 254 254 255 255 255 255 255 256 256 257 258 257
260 257 255 253 253 254 254 253 253 254 255 255 256 258 258 259 259 259 260 259 260 260 259 258 257 257 257 257 256 255 254 253 253 254 255 255 255 255 256 257 257 258 257
260 257 255 254 254 254 255 254 254 255 256 257 258 259 260 260 261 261 261 261 261 260 260 260 259 258 258 257 257 256 255 254 253 253 253 254 255 255 256 257 258 258 258
259 257 256 256 255 256 256 256 256 256 257 258 259 260 260 260 261 262 262 262 261 260 259 259 259 259 259 259 258 258 257 255 254 254 254 254 255 256 256 257 258 258 258
260 257 257 258 257 258 258 259 259 258 259 260 260 261 261 261 262 262 261 261 260 260 260 259 259 259 259 259 258 258 258 257 257 256 256 256 257 258 258 258 258 258 259
261 259 259 259 260 260 260 260 260 260 260 260 260 260 261 261 261 261 262 262 261 261 260 260 260 260 260 260 259 259 258 258 258 258 258 258 258 258 258 259 260 260 260
261 261 260 260 261 262 262 262 261 261 261 261 261 261 260 260 260 261 261 261 261 261 261 261 261 260 260 260 260 260 259 259 259 258 259 259 259 259 260 260 261 261 261
266 264 263 264 263 263 263 263 262 262 262 262 262 261 261 261 262 262 262 263 262 261 260 261 262 262 261 261 260 260 260 259 259 259 259 259 260 260 261 261 262 262 262
268 267 267 266 265 264 264 264 264 263 263 263 263 263 262 262 261 262 262 262 262 262 261 262 262 262 262 261 261 261 260 260 260 259 259 260 260 260 261 262 262 263 263
268 268 268 268 267 266 266 265 265 265 265 265 265 264 263 262 262 262 262 263 262 262 262 262 262 262 262 262 262 261 260 260 260 260 260 260 261 261 262 263 263 263 263
271 270 270 270 269 268 267 266 266 266 266 265 265 265 265 264 263 263 263 264 264 263 263 263 263 263 263 264 263 262 261 260 260 261 261 261 262 262 263 263 264 264 263
274 272 272 271 270 269 268 268 268 267 267 266 266 266 265 265 265 264 264 264 264 263 264 264 265 265 265 264 264 263 262 262 262 262 262 263 263 263 263 263 264 264 264
277 275 274 272 271 270 269 270 269 269 268 268 267 268 267 266 266 266 265 264 264 264 265 265 265 266 266 265 265 264 263 263 263 263 263 264 264 264 264 264 265 265 264
276 276 276 274 273 272 271 271 271 270 269 268 268 268 267 267 267 267 266 265 264 265 265 266 266 266 266 265 265 264 263 263 263 264 263 263 264 264 264 264 264 264 264
276 277 278 276 275 274 273 272 272 272 271 270 268 268 268 267 267 267 267 266 266 266 267 266 266 267 267 266 264 263 263 263 263 264 264 264 264 264 264 264 263 263 263
278 278 279 278 277 276 275 274 274 274 272 271 270 270 269 269 268 268 268 268 268 267 267 267 267 267 267 266 265 264 263 263 263 264 264 264 265 265 265 265 264 263 264
280 281 280 279 278 277 277 277 276 276 275 274 273 272 272 271 270 269 269 269 269 269 268 268 268 267 266 266 266 264 264 264 264 264 265 265 265 265 265 265 264 263 264
282 282 282 281 279 278 277 277 277 277 277 276 275 274 273 272 271 270 270 270 270 270 269 269 268 268 267 266 266 265 265 265 265 265 265 266 266 266 265 265 264 263 263
282 282 282 282 280 279 279 279 279 278 278 278 277 275 274 273 272 272 272 272 271 271 271 270 269 268 267 266 266 266 266 266 266 266 266 267 266 266 266 265 265 264 263
282 283 283 283 282 281 280 280 280 279 279 279 278 277 276 275 275 274 273 273 272 272 271 271 270 269 267 267 266 266 267 267 267 267 267 267 266 265 265 265 265 264 263
284 284 284 284 283 282 281 280 280 280 280 279 278 277 277 277 276 276 275 274 274 273 271 270 270 269 268 267 267 267 267 268 268 268 267 267 265 265 264 264 264 264 263
286 286 285 285 283 282 281 281 281 281 281 280 279 278 278 277 277 277 276 276 275 274 272 271 270 269 268 268 268 267 268 268 269 269 268 267 266 266 265 264 264 264 264
286 286 285 285 284 283 282 282 282 282 281 280 280 279 278 278 278 278 277 277 275 274 273 271 270 269 269 269 268 268 268 269 270 270 269 268 267 266 265 265 265 265 264
287 287 286 285 284 283 283 283 283 283 282 280 280 280 279 279 279 278 277 276 275 274 273 272 271 270 269 268 268 268 269 270 270 270 269 269 268 266 265 265 265 265 265
288 288 287 285 284 283 284 284 284 283 283 281 280 280 280 280 279 279 277 276 276 275 274 273 272 271 270 269 269 269 270 271 271 272 271 270 269 267 266 265 264 265 265
Height
5709 5709 5710 5712 5713 5714 5716 5717 5719 5720 5721 5723 5724 5726 5727 5727 5728 5729 5729 5730 5731 5732 5733 5734 5735 5736 5737 5738 5740 5742 5743 5746 5748 5750 5752 5754 5756 5757 5759 5760 5762 5763 5765
5699 5700 5700 5701 5703 5704 5705 5707 5708 5710 5711 5712 5713 5715 5715 5716 5717 5717 5718 5718 5719 5720 5721 5721 5722 5723 5725 5726 5728 5730 5731 5734 5736 5738 5740 5742 5745 5746 5747 5749 5751 5752 5753
5689 5689 5690 5691 5692 5693 5695 5696 5697 5699 5700 5701 5702 5703 5703 5704 5705 5706 5706 5706 5706 5707 5707 5708 5710 5711 5712 5714 5715 5717 5719 5721 5723 5725 5727 5729 5732 5734 5736 5737 5739 5740 5741
5679 5679 5679 5680 5681 5682 5683 5685 5686 5687 5688 5689 5690 5691 5691 5692 5693 5693 5693 5694 5694 5694 5695 5696 5697 5698 5699 5701 5702 5704 5706 5708 5710 5712 5714 5717 5718 5721 5723 5724 5726 5727 5728
5668 5668 5669 5670 5671 5671 5672 5673 5674 5676 5676 5677 5678 5679 5679 5680 5680 5680 5681 5681 5682 5682 5682 5683 5684 5685 5687 5688 5689 5691 5693 5695 5697 5699 5701 5703 5705 5706 5709 5711 5713 5714 5715
5658 5658 5659 5659 5660 5661 5661 5662 5663 5664 5664 5665 5666 5666 5667 5667 5667 5668 5668 5669 5669 5669 5670 5671 5672 5673 5674 5675 5676 5678 5679 5681 5683 5685 5687 5689 5691 5693 5695 5697 5698 5700 5702
5648 5648 5649 5649 5650 5650 5650 5651 5651 5652 5652 5653 5653 5654 5654 5654 5655 5655 5655 5656 5656 5657 5657 5658 5659 5660 5661 5662 5663 5664 5666 5668 5669 5671 5673 5675 5676 5678 5680 5681 5683 5685 5687
5637 5637 5638 5638 5639 5639 5639 5640 5640 5640 5640 5641 5641 5641 5641 5641 5642 5642 5642 5643 5643 5644 5644 5645 5645 5646 5647 5648 5649 5650 5652 5654 5655 5657 5659 5660 5662 5663 5664 5666 5668 5669 5671
5626 5626 5627 5627 5628 5628 5628 5628 5628 5628 5628 5628 5628 5628 5628 5629 5629 5629 5629 5629 5630 5630 5631 5632 5632 5633 5633 5634 5635 5636 5637 5639 5640 5642 5644 5646 5647 5648 5650 5651 5652 5654 5655
5615 5615 5616 5616 5616 5617 5617 5616 5616 5616 5616 5616 5616 5616 5616 5616 5616 5616 5616 5616 5617 5617 5618 5618 5619 5619 5620 5620 5621 5622 5623 5624 5626 5627 5629 5630 5632 5633 5634 5635 5636 5637 5638
5604 5604 5604 5604 5604 5605 5605 5604 5604 5604 5604 5604 5603 5603 5603 5603 5603 5603 5603 5603 5603 5604 5604 5605 5605 5605 5606 5606 5607 5608 5608 5610 5611 5612 5613 5615 5616 5617 5618 5619 5620 5621 5621
5593 5592 5592 5592 5592 5592 5592 5592 5592 5591 5591 5591 5590 5590 5590 5590 5589 5590 5590 5590 5590 5590 5590 5591 5591 5591 5591 5592 5592 5593 5593 5594 5596 5597 5598 5599 5600 5601 5602 5602 5603 5604 5604
5582 5581 5580 5580 5580 5579 5579 5579 5578 5578 5578 5577 5577 5577 5576 5576 5576 5575 5575 5575 5575 5576 5576 5576 5576 5576 5577 5577 5577 5577 5578 5579 5580 5581 5582 5583 5583 5584 5585 5585 5586 5586 5587
5571 5570 5569 5568 5567 5567 5566 5565 5565 5564 5564 5563 5563 5563 5562 5562 5561 5561 5561 5561 5561 5561 5561 5561 5561 5561 5561 5561 5561 5562 5563 5563 5564 5565 5565 5566 5566 5567 5567 5568 5568 5569 5569
5561 5559 5558 5557 5555 5554 5553 5552 5551 5550 5550 5549 5549 5548 5548 5547 5547 5546 5546 5546 5546 5546 5546 5546 5545 5545 5545 5545 5545 5545 5546 5547 5548 5548 5548 5549 5549 5549 5550 5550 5551 5551 5552
5550 5548 5546 5545 5543 5542 5540 5539 5538 5537 5536 5535 5534 5533 5533 5532 5532 5531 5531 5531 5531 5530 5530 5530 5529 5529 5529 5529 5528 5529 5529 5530 5531 5531 5531 5532 5532 5532 5532 5533 5533 5534 5535
5538 5536 5535 5533 5531 5529 5528 5526 5525 5523 5522 5520 5519 5518 5517 5517 5516 5516 5515 5515 5515 5515 5514 5513 5513 5513 5512 5512 5511 5511 5512 5513 5513 5514 5514 5514 5514 5514 5515 5515 5515 5516 5517
5527 5525 5523 5521 5519 5517 5515 5513 5511 5510 5508 5507 5505 5504 5502 5501 5501 5500 5500 5499 5499 5498 5498 5497 5496 5496 5496 5495 5495 5494 5494 5495 5496 5496 5496 5497 5497 5496 5496 5497 5497 5498 5500
5515 5513 5511 5509 5506 5504 5502 5500 5498 5497 5495 5493 5491 5489 5487 5486 5485 5485 5484 5483 5482 5482 5481 5480 5479 5479 5479 5478 5478 5477 5477 5478 5478 5478 5479 5479 5479 5479 5478 5479 5480 5481 5482
5503 5501 5498 5496 5494 5491 5489 5487 5485 5483 5481 5479 5477 5475 5473 5471 5470 5469 5468 5467 5466 5465 5464 5463 5462 5462 5461 5461 5460 5460 5460 5461 5461 5461 5461 5461 5460 5460 5459 5460 5461 5463 5464
5491 5488 5486 5483 5481 5478 5476 5474 5472 5469 5467 5465 5463 5461 5459 5457 5455 5454 5452 5451 5450 5448 5447 5447 5446 5445 5444 5444 5443 5443 5442 5442 5443 5443 5443 5442 5442 5442 5442 5442 5443 5445 5446
5478 5476 5473 5470 5468 5465 5463 5460 5458 5456 5453 5451 5448 5446 5444 5442 5440 5438 5436 5434 5433 5431 5430 5429 5428 5427 5427 5427 5426 5426 5425 5425 5425 5425 5424 5424 5424 5424 5424 5424 5425 5426 5427
5466 5463 5460 5457 5454 5451 5449 5447 5444 5441 5439 5436 5434 5431 5429 5426 5424 5422 5420 5418 5416 5414 5413 5412 5411 5411 5410 5410 5409 5408 5408 5407 5407 5407 5406 5406 5406 5405 5406 5406 5407 5407 5408
5453 5450 5447 5444 5441 5438 5435 5433 5430 5427 5424 5422 5419 5416 5414 5411 5409 5406 5404 5401 5399 5398 5396 5395 5395 5394 5394 5393 5392 5391 5391 5390 5389 5389 5388 5388 5387 5387 5388 5388 5388 5389 5390
5440 5437 5434 5431 5428 5425 5422 5419 5415 5412 5409 5407 5404 5401 5398 5396 5393 5390 5388 5386 5384 5382 5381 5379 5378 5378 5377 5377 5376 5375 5374 5373 5373 5372 5371 5370 5370 5370 5370 5370 5370 5371 5372
5426 5423 5420 5417 5414 5411 5408 5404 5401 5398 5395 5392 5389 5386 5383 5380 5377 5375 5372 5369 5367 5366 5364 5363 5362 5361 5361 5360 5359 5358 5357 5356 5355 5354 5354 5353 5353 5352 5353 5353 5353 5354 5354